| time (UTC) | temp F | wind direction | speed MPH | gust MPH | rain 1hr in | rain 24hr in | rain mn in | humidity % | barometer mb |
| 20260831005802 | 74 | 200 | 1.0 | 4.0 | 0.00 | 0.35 | 0.30 | 82 | 1011.6 |
| 20260831005622 | 74 | 200 | 1.0 | 3.0 | 0.00 | 0.35 | 0.30 | 81 | 1011.6 |
| 20260831004756 | 74 | 207 | 1.0 | 4.0 | 0.00 | 0.35 | 0.30 | 81 | 1011.6 |
| 20260831004247 | 75 | 207 | 2.0 | 4.0 | 0.00 | 0.35 | 0.30 | 81 | 1011.5 |
| 20260831004107 | 75 | 199 | 1.0 | 4.0 | 0.00 | 0.35 | 0.30 | 80 | 1011.5 |
| 20260831003244 | 75 | 202 | 1.0 | 4.0 | 0.00 | 0.35 | 0.30 | 80 | 1011.5 |
| 20260831002733 | 75 | 174 | 2.0 | 7.0 | 0.00 | 0.36 | 0.30 | 79 | 1011.6 |
| 20260831002215 | 75 | 211 | 1.0 | 7.0 | 0.00 | 0.36 | 0.30 | 79 | 1011.6 |
| 20260831002028 | 75 | 198 | 1.0 | 5.0 | 0.00 | 0.36 | 0.30 | 79 | 1011.6 |
| 20260831001207 | 76 | 198 | 2.0 | 7.0 | 0.00 | 0.37 | 0.30 | 78 | 1011.6 |
| 20260831000708 | 76 | 190 | 2.0 | 7.0 | 0.00 | 0.37 | 0.30 | 77 | 1011.6 |
| 20260831000211 | 76 | 196 | 2.0 | 7.0 | 0.00 | 0.37 | 0.30 | 77 | 1011.6 |
| 20260831000017 | 76 | 201 | 1.0 | 4.0 | 0.00 | 0.37 | 0.30 | 76 | 1011.6 |
| 20260830235208 | 76 | 206 | 1.0 | 5.0 | 0.00 | 0.37 | 0.30 | 76 | 1011.6 |
| 20260830235016 | 77 | 220 | 2.0 | 5.0 | 0.00 | 0.37 | 0.30 | 75 | 1011.7 |
| 20260830234209 | 77 | 180 | 2.0 | 5.0 | 0.00 | 0.37 | 0.30 | 75 | 1011.7 |
| 20260830234032 | 77 | 246 | 3.0 | 9.0 | 0.00 | 0.37 | 0.30 | 74 | 1011.7 |
| 20260830233209 | 77 | 211 | 3.0 | 9.0 | 0.00 | 0.37 | 0.30 | 74 | 1011.7 |
| 20260830232703 | 77 | 198 | 3.0 | 6.0 | 0.00 | 0.37 | 0.30 | 73 | 1011.7 |
| 20260830232533 | 78 | 201 | 3.0 | 7.0 | 0.00 | 0.37 | 0.30 | 73 | 1011.7 |
| 20260830231703 | 78 | 273 | 3.0 | 7.0 | 0.00 | 0.37 | 0.30 | 72 | 1011.7 |
| 20260830231215 | 78 | 186 | 3.0 | 6.0 | 0.00 | 0.37 | 0.30 | 71 | 1011.6 |
| 20260830230702 | 78 | 213 | 3.0 | 10.0 | 0.00 | 0.37 | 0.30 | 70 | 1011.7 |
| 20260830230155 | 79 | 216 | 2.0 | 10.0 | 0.00 | 0.37 | 0.30 | 70 | 1011.7 |
| 20260830225654 | 79 | 202 | 2.0 | 6.0 | 0.00 | 0.37 | 0.30 | 70 | 1011.7 |
| 20260830225150 | 79 | 244 | 2.0 | 7.0 | 0.00 | 0.37 | 0.30 | 69 | 1011.7 |
| 20260830224652 | 79 | 204 | 3.0 | 7.0 | 0.00 | 0.37 | 0.30 | 68 | 1011.7 |
| 20260830224521 | 80 | 200 | 3.0 | 6.0 | 0.00 | 0.37 | 0.30 | 68 | 1011.6 |
| 20260830223708 | 80 | 193 | 3.0 | 8.0 | 0.00 | 0.37 | 0.30 | 66 | 1011.5 |
| 20260830223701 | 80 | 186 | 3.0 | 7.0 | 0.00 | 0.37 | 0.30 | 67 | 1011.7 |
| 20260830223648 | 80 | 173 | 2.0 | 7.0 | 0.00 | 0.37 | 0.30 | 67 | 1011.7 |
| 20260830222141 | 80 | 273 | 3.0 | 8.0 | 0.00 | 0.37 | 0.30 | 66 | 1011.5 |
| 20260830221641 | 80 | 252 | 3.0 | 7.0 | 0.00 | 0.37 | 0.30 | 66 | 1011.5 |
| 20260830221141 | 80 | 195 | 4.0 | 9.0 | 0.00 | 0.37 | 0.30 | 64 | 1011.7 |
| 20260830220640 | 81 | 225 | 4.0 | 9.0 | 0.00 | 0.37 | 0.30 | 64 | 1011.7 |
| 20260830220131 | 81 | 254 | 3.0 | 7.0 | 0.00 | 0.37 | 0.30 | 64 | 1011.7 |
| 20260830215928 | 81 | 213 | 4.0 | 10.0 | 0.00 | 0.37 | 0.30 | 64 | 1011.5 |
| 20260830215111 | 81 | 212 | 5.0 | 11.0 | 0.00 | 0.37 | 0.30 | 63 | 1011.6 |
| 20260830214611 | 81 | 212 | 5.0 | 11.0 | 0.00 | 0.37 | 0.30 | 62 | 1011.6 |
| 20260830214113 | 82 | 251 | 4.0 | 10.0 | 0.00 | 0.37 | 0.30 | 62 | 1011.6 |
| 20260830213926 | 82 | 222 | 3.0 | 7.0 | 0.00 | 0.37 | 0.30 | 62 | 1011.6 |
| 20260830213111 | 81 | 188 | 4.0 | 9.0 | 0.00 | 0.37 | 0.30 | 61 | 1011.6 |
| 20260830212611 | 81 | 203 | 5.0 | 14.0 | 0.00 | 0.37 | 0.30 | 61 | 1011.9 |
| 20260830212108 | 82 | 212 | 4.0 | 14.0 | 0.00 | 0.37 | 0.30 | 60 | 1011.9 |
| 20260830211607 | 82 | 199 | 4.0 | 12.0 | 0.00 | 0.37 | 0.30 | 61 | 1012.0 |
| 20260830211105 | 82 | 235 | 4.0 | 12.0 | 0.00 | 0.37 | 0.30 | 59 | 1012.0 |
| 20260830210607 | 82 | 244 | 5.0 | 16.0 | 0.00 | 0.37 | 0.30 | 58 | 1012.0 |
| 20260830210117 | 83 | 244 | 6.0 | 16.0 | 0.00 | 0.37 | 0.30 | 57 | 1012.0 |
| 20260830205602 | 83 | 171 | 5.0 | 12.0 | 0.00 | 0.37 | 0.30 | 57 | 1012.0 |
| 20260830205104 | 83 | 210 | 4.0 | 12.0 | 0.00 | 0.37 | 0.30 | 58 | 1012.0 |
| 20260830204931 | 83 | 265 | 5.0 | 13.0 | 0.00 | 0.37 | 0.30 | 57 | 1012.0 |
| 20260830204101 | 83 | 194 | 5.0 | 13.0 | 0.00 | 0.37 | 0.30 | 57 | 1011.9 |
| 20260830203918 | 83 | 246 | 5.0 | 13.0 | 0.00 | 0.37 | 0.30 | 57 | 1011.9 |
| 20260830203058 | 83 | 215 | 6.0 | 18.0 | 0.00 | 0.37 | 0.30 | 58 | 1011.9 |
| 20260830202559 | 83 | 203 | 5.0 | 18.0 | 0.00 | 0.37 | 0.30 | 57 | 1012.0 |
| 20260830202114 | 83 | 273 | 4.0 | 16.0 | 0.00 | 0.37 | 0.30 | 59 | 1012.0 |
| 20260830201923 | 83 | 212 | 4.0 | 12.0 | 0.00 | 0.37 | 0.30 | 62 | 1012.0 |
| 20260830201057 | 83 | 266 | 4.0 | 12.0 | 0.00 | 0.37 | 0.30 | 64 | 1012.3 |
| 20260830200908 | 83 | 234 | 4.0 | 9.0 | 0.00 | 0.37 | 0.30 | 64 | 1012.3 |
| 20260830200105 | 83 | 156 | 4.0 | 12.0 | 0.00 | 0.37 | 0.30 | 63 | 1012.4 |
| 20260830195556 | 83 | 228 | 4.0 | 12.0 | 0.00 | 0.37 | 0.30 | 63 | 1012.4 |
| 20260830195053 | 83 | 199 | 4.0 | 8.0 | 0.00 | 0.37 | 0.30 | 64 | 1012.4 |
| 20260830194552 | 83 | 155 | 4.0 | 9.0 | 0.00 | 0.37 | 0.30 | 65 | 1012.4 |
| 20260830194422 | 83 | 213 | 5.0 | 9.0 | 0.00 | 0.37 | 0.30 | 64 | 1012.4 |
| 20260830193929 | 83 | 168 | 4.0 | 11.0 | 0.00 | 0.37 | 0.30 | 65 | 1012.4 |
| 20260830193051 | 82 | 217 | 4.0 | 11.0 | 0.00 | 0.37 | 0.30 | 66 | 1012.4 |
| 20260830192551 | 82 | 186 | 4.0 | 9.0 | 0.00 | 0.37 | 0.30 | 66 | 1012.2 |
| 20260830192427 | 82 | 325 | 4.0 | 9.0 | 0.00 | 0.37 | 0.30 | 66 | 1012.2 |
| 20260830191550 | 82 | 215 | 3.0 | 8.0 | 0.00 | 0.37 | 0.30 | 67 | 1012.2 |
| 20260830191046 | 82 | 184 | 2.0 | 8.0 | 0.00 | 0.37 | 0.30 | 68 | 1012.4 |
| 20260830190546 | 81 | 263 | 3.0 | 7.0 | 0.00 | 0.37 | 0.30 | 70 | 1012.3 |
| 20260830190100 | 81 | 218 | 4.0 | 8.0 | 0.00 | 0.37 | 0.30 | 71 | 1012.3 |
| 20260830185547 | 80 | 241 | 4.0 | 8.0 | 0.00 | 0.37 | 0.30 | 72 | 1012.2 |
| 20260830185044 | 80 | 235 | 3.0 | 7.0 | 0.00 | 0.37 | 0.30 | 74 | 1012.2 |
| 20260830184544 | 79 | 197 | 2.0 | 7.0 | 0.00 | 0.37 | 0.30 | 74 | 1012.1 |
| 20260830184043 | 79 | 200 | 1.0 | 5.0 | 0.00 | 0.37 | 0.30 | 77 | 1012.2 |
| 20260830183543 | 78 | 63 | 2.0 | 6.0 | 0.00 | 0.37 | 0.30 | 78 | 1012.2 |
| 20260830183408 | 78 | 204 | 3.0 | 7.0 | 0.00 | 0.37 | 0.30 | 77 | 1012.1 |
| 20260830182540 | 78 | 205 | 3.0 | 7.0 | 0.00 | 0.37 | 0.30 | 78 | 1012.1 |
| 20260830182041 | 78 | 189 | 2.0 | 7.0 | 0.00 | 0.37 | 0.30 | 78 | 1012.0 |
| 20260830181528 | 77 | 171 | 2.0 | 5.0 | 0.00 | 0.37 | 0.30 | 80 | 1012.0 |
| 20260830181028 | 77 | 150 | 2.0 | 6.0 | 0.00 | 0.37 | 0.30 | 81 | 1011.9 |
| 20260830180511 | 77 | 147 | 2.0 | 6.0 | 0.00 | 0.37 | 0.30 | 80 | 1011.9 |
| 20260830180008 | 76 | 268 | 3.0 | 9.0 | 0.00 | 0.37 | 0.30 | 83 | 1012.1 |
| 20260830175840 | 76 | 193 | 2.0 | 9.0 | 0.00 | 0.37 | 0.30 | 84 | 1012.1 |
| 20260830175334 | 75 | 180 | 2.0 | 7.0 | 0.00 | 0.37 | 0.30 | 84 | 1012.0 |
| 20260830174512 | 74 | 216 | 2.0 | 7.0 | 0.00 | 0.37 | 0.30 | 84 | 1012.2 |
| 20260830174012 | 74 | 203 | 3.0 | 9.0 | 0.00 | 0.37 | 0.30 | 85 | 1012.2 |
| 20260830173507 | 74 | 137 | 3.0 | 9.0 | 0.00 | 0.37 | 0.30 | 85 | 1012.2 |
| 20260830173340 | 74 | 225 | 3.0 | 8.0 | 0.00 | 0.37 | 0.30 | 86 | 1012.4 |
| 20260830172518 | 73 | 209 | 3.0 | 8.0 | 0.00 | 0.37 | 0.30 | 87 | 1012.4 |
| 20260830172007 | 73 | 203 | 3.0 | 7.0 | 0.00 | 0.37 | 0.30 | 87 | 1012.4 |
| 20260830171506 | 73 | 170 | 3.0 | 7.0 | 0.00 | 0.37 | 0.30 | 88 | 1012.5 |
| 20260830171144 | 72 | 181 | 3.0 | 7.0 | 0.00 | 0.37 | 0.30 | 90 | 1012.4 |
| 20260830171106 | 72 | 211 | 3.0 | 7.0 | 0.00 | 0.37 | 0.30 | 89 | 1012.4 |
| 20260830170334 | 71 | 228 | 3.0 | 7.0 | 0.00 | 0.37 | 0.30 | 90 | 1012.4 |
| 20260830165503 | 71 | 196 | 3.0 | 6.0 | 0.00 | 0.37 | 0.30 | 91 | 1012.4 |
| 20260830165326 | 71 | 191 | 3.0 | 9.0 | 0.00 | 0.37 | 0.30 | 91 | 1012.3 |
| 20260830164502 | 71 | 206 | 3.0 | 9.0 | 0.00 | 0.37 | 0.30 | 91 | 1012.4 |
| 20260830164002 | 71 | 185 | 3.0 | 6.0 | 0.00 | 0.37 | 0.30 | 92 | 1012.4 |
| 20260830163500 | 70 | 202 | 2.0 | 5.0 | 0.00 | 0.37 | 0.30 | 92 | 1012.4 |
| 20260830163000 | 70 | 200 | 3.0 | 6.0 | 0.00 | 0.37 | 0.30 | 92 | 1012.6 |
| 20260830162459 | 70 | 199 | 3.0 | 6.0 | 0.00 | 0.37 | 0.30 | 93 | 1012.6 |
| 20260830162332 | 69 | 202 | 2.0 | 4.0 | 0.00 | 0.37 | 0.30 | 93 | 1012.6 |
| 20260830161458 | 69 | 192 | 2.0 | 4.0 | 0.00 | 0.37 | 0.30 | 93 | 1012.7 |
| 20260830160957 | 69 | 206 | 2.0 | 4.0 | 0.00 | 0.37 | 0.30 | 94 | 1012.7 |
| 20260830160449 | 69 | 199 | 2.0 | 6.0 | 0.00 | 0.37 | 0.30 | 94 | 1012.7 |
| 20260830160310 | 69 | 207 | 2.0 | 6.0 | 0.00 | 0.37 | 0.30 | 94 | 1012.7 |
| 20260830155450 | 69 | 161 | 2.0 | 5.0 | 0.00 | 0.37 | 0.30 | 94 | 1012.7 |
| 20260830154949 | 68 | 211 | 2.0 | 6.0 | 0.00 | 0.37 | 0.30 | 95 | 1012.7 |
| 20260830154443 | 68 | 199 | 2.0 | 6.0 | 0.00 | 0.37 | 0.30 | 95 | 1012.6 |
| 20260830154306 | 68 | 201 | 1.0 | 4.0 | 0.00 | 0.37 | 0.30 | 95 | 1012.6 |
| 20260830153430 | 68 | 206 | 1.0 | 5.0 | 0.00 | 0.37 | 0.30 | 95 | 1012.6 |
| 20260830152922 | 67 | 206 | 2.0 | 5.0 | 0.00 | 0.37 | 0.30 | 96 | 1012.6 |
| 20260830152420 | 67 | 213 | 2.0 | 5.0 | 0.00 | 0.37 | 0.30 | 96 | 1012.6 |
| 20260830151921 | 67 | 192 | 2.0 | 5.0 | 0.00 | 0.37 | 0.30 | 96 | 1012.6 |
| 20260830151721 | 67 | 216 | 3.0 | 8.0 | 0.00 | 0.37 | 0.30 | 96 | 1012.6 |
| 20260830150904 | 67 | 159 | 2.0 | 8.0 | 0.00 | 0.37 | 0.30 | 96 | 1012.5 |
| 20260830150404 | 66 | 159 | 2.0 | 5.0 | 0.00 | 0.37 | 0.30 | 96 | 1012.5 |
| 20260830150231 | 66 | 206 | 2.0 | 5.0 | 0.00 | 0.37 | 0.30 | 95 | 1012.5 |
| 20260830145357 | 66 | 171 | 3.0 | 6.0 | 0.00 | 0.37 | 0.30 | 96 | 1012.5 |
| 20260830144857 | 66 | 174 | 3.0 | 6.0 | 0.00 | 0.37 | 0.30 | 95 | 1012.5 |
| 20260830144357 | 66 | 130 | 3.0 | 8.0 | 0.00 | 0.37 | 0.30 | 96 | 1012.2 |
| 20260830143856 | 66 | 207 | 4.0 | 8.0 | 0.00 | 0.37 | 0.30 | 96 | 1012.2 |
| 20260830143358 | 66 | 94 | 3.0 | 8.0 | 0.00 | 0.37 | 0.30 | 96 | 1012.2 |
| 20260830142854 | 66 | 173 | 3.0 | 8.0 | 0.00 | 0.37 | 0.30 | 96 | 1012.6 |
| 20260830142353 | 66 | 195 | 3.0 | 9.0 | 0.00 | 0.37 | 0.30 | 96 | 1012.6 |
| 20260830141856 | 66 | 208 | 3.0 | 9.0 | 0.00 | 0.37 | 0.30 | 96 | 1012.6 |
| 20260830141717 | 65 | 175 | 4.0 | 8.0 | 0.00 | 0.37 | 0.30 | 96 | 1012.6 |
| 20260830141220 | 65 | 170 | 4.0 | 8.0 | 0.02 | 0.37 | 0.30 | 96 | 1012.6 |
| 20260830140354 | 65 | 168 | 3.0 | 7.0 | 0.11 | 0.37 | 0.30 | 96 | 1012.6 |
| 20260830135843 | 65 | 212 | 3.0 | 8.0 | 0.11 | 0.37 | 0.30 | 96 | 1012.7 |
| 20260830135345 | 65 | 198 | 3.0 | 8.0 | 0.11 | 0.37 | 0.30 | 96 | 1012.7 |
| 20260830134840 | 65 | 146 | 3.0 | 7.0 | 0.11 | 0.37 | 0.30 | 96 | 1012.7 |
| 20260830134704 | 65 | 186 | 3.0 | 7.0 | 0.12 | 0.37 | 0.30 | 96 | 1012.9 |
| 20260830134214 | 65 | 169 | 3.0 | 7.0 | 0.12 | 0.37 | 0.30 | 96 | 1012.9 |
| 20260830133331 | 65 | 153 | 2.0 | 7.0 | 0.12 | 0.37 | 0.30 | 96 | 1012.9 |
| 20260830132822 | 65 | 165 | 2.0 | 5.0 | 0.12 | 0.37 | 0.30 | 96 | 1013.0 |
| 20260830132318 | 64 | 162 | 3.0 | 6.0 | 0.12 | 0.37 | 0.30 | 96 | 1013.0 |
| 20260830132123 | 65 | 155 | 3.0 | 7.0 | 0.12 | 0.37 | 0.30 | 96 | 1013.0 |
| 20260830131308 | 64 | 110 | 2.0 | 7.0 | 0.12 | 0.37 | 0.30 | 96 | 1013.4 |
| 20260830130809 | 64 | 121 | 1.0 | 4.0 | 0.07 | 0.32 | 0.26 | 96 | 1013.4 |
| 20260830130430 | 64 | 190 | 4.0 | 8.0 | 0.01 | 0.26 | 0.19 | 96 | 1013.1 |
| 20260830130405 | 64 | 166 | 2.0 | 8.0 | 0.01 | 0.26 | 0.19 | 96 | 1013.4 |
| 20260830125306 | 64 | 181 | 3.0 | 8.0 | 0.01 | 0.26 | 0.19 | 96 | 1013.1 |
| 20260830125125 | 64 | 118 | 2.0 | 7.0 | 0.01 | 0.26 | 0.19 | 95 | 1013.0 |
| 20260830124310 | 64 | 184 | 2.0 | 6.0 | 0.00 | 0.25 | 0.18 | 95 | 1013.2 |
| 20260830123934 | 64 | 158 | 2.0 | 6.0 | 0.01 | 0.25 | 0.18 | 95 | 1013.2 |
| 20260830123905 | 64 | 170 | 2.0 | 5.0 | 0.00 | 0.25 | 0.18 | 95 | 1013.2 |
| 20260830123120 | 64 | 118 | 3.0 | 6.0 | 0.01 | 0.25 | 0.18 | 95 | 1013.0 |
| 20260830122306 | 64 | 160 | 4.0 | 9.0 | 0.01 | 0.25 | 0.18 | 95 | 1013.0 |
| 20260830121805 | 64 | 179 | 4.0 | 10.0 | 0.01 | 0.25 | 0.18 | 95 | 1013.0 |
| 20260830121257 | 64 | 210 | 4.0 | 10.0 | 0.01 | 0.25 | 0.18 | 95 | 1013.0 |
| 20260830120756 | 64 | 155 | 3.0 | 7.0 | 0.01 | 0.25 | 0.18 | 95 | 1013.0 |
| 20260830120258 | 64 | 221 | 4.0 | 11.0 | 0.01 | 0.25 | 0.18 | 95 | 1013.0 |
| 20260830115757 | 64 | 205 | 4.0 | 11.0 | 0.01 | 0.25 | 0.18 | 95 | 1013.0 |
| 20260830115255 | 64 | 180 | 4.0 | 8.0 | 0.01 | 0.25 | 0.18 | 95 | 1013.0 |
| 20260830114754 | 64 | 184 | 4.0 | 10.0 | 0.01 | 0.25 | 0.18 | 95 | 1013.0 |
| 20260830114256 | 64 | 203 | 5.0 | 10.0 | 0.01 | 0.25 | 0.18 | 95 | 1012.9 |
| 20260830113753 | 64 | 139 | 4.0 | 8.0 | 0.01 | 0.25 | 0.18 | 95 | 1012.9 |
| 20260830113251 | 64 | 224 | 4.0 | 8.0 | 0.01 | 0.24 | 0.17 | 95 | 1013.0 |
| 20260830112752 | 64 | 192 | 4.0 | 10.0 | 0.02 | 0.24 | 0.17 | 95 | 1013.0 |
| 20260830112246 | 64 | 227 | 4.0 | 10.0 | 0.02 | 0.24 | 0.17 | 95 | 1013.0 |
| 20260830111755 | 64 | 163 | 4.0 | 8.0 | 0.03 | 0.24 | 0.17 | 95 | 1013.0 |
| 20260830111412 | 64 | 155 | 4.0 | 10.0 | 0.03 | 0.24 | 0.17 | 95 | 1013.1 |
| 20260830111338 | 64 | 190 | 4.0 | 8.0 | 0.03 | 0.24 | 0.17 | 95 | 1013.1 |
| 20260830110232 | 64 | 175 | 3.0 | 10.0 | 0.04 | 0.24 | 0.17 | 95 | 1013.1 |
| 20260830105715 | 64 | 200 | 3.0 | 6.0 | 0.04 | 0.24 | 0.17 | 95 | 1013.3 |
| 20260830105217 | 64 | 197 | 1.0 | 5.0 | 0.04 | 0.24 | 0.17 | 95 | 1013.3 |
| 20260830104712 | 64 | 92 | 1.0 | 4.0 | 0.05 | 0.24 | 0.17 | 95 | 1013.3 |
| 20260830104217 | 64 | 192 | 1.0 | 5.0 | 0.05 | 0.24 | 0.17 | 95 | 1012.9 |
| 20260830103715 | 64 | 164 | 2.0 | 6.0 | 0.06 | 0.24 | 0.17 | 95 | 1012.9 |
| 20260830103212 | 64 | 131 | 3.0 | 6.0 | 0.05 | 0.23 | 0.16 | 95 | 1012.9 |
| 20260830102710 | 64 | 119 | 2.0 | 6.0 | 0.04 | 0.22 | 0.15 | 95 | 1013.1 |
| 20260830102212 | 64 | 196 | 3.0 | 6.0 | 0.04 | 0.22 | 0.15 | 95 | 1013.1 |
| 20260830101706 | 64 | 139 | 2.0 | 6.0 | 0.03 | 0.21 | 0.14 | 95 | 1013.1 |
| 20260830101218 | 64 | 196 | 2.0 | 7.0 | 0.04 | 0.21 | 0.14 | 95 | 1013.7 |
| 20260830100707 | 64 | 161 | 2.0 | 7.0 | 0.04 | 0.21 | 0.14 | 95 | 1013.7 |
| 20260830100207 | 64 | 148 | 2.0 | 5.0 | 0.05 | 0.20 | 0.14 | 95 | 1013.7 |
| 20260830095703 | 64 | 183 | 1.0 | 4.0 | 0.07 | 0.20 | 0.13 | 95 | 1013.7 |
| 20260830095205 | 64 | 191 | 1.0 | 4.0 | 0.08 | 0.20 | 0.13 | 95 | 1013.7 |
| 20260830094704 | 64 | 153 | 2.0 | 4.0 | 0.07 | 0.19 | 0.12 | 95 | 1013.7 |
| 20260830094201 | 64 | 132 | 2.0 | 5.0 | 0.08 | 0.19 | 0.12 | 95 | 1013.3 |
| 20260830093701 | 64 | 109 | 1.0 | 5.0 | 0.09 | 0.18 | 0.11 | 95 | 1013.3 |
| 20260830093202 | 64 | 161 | 1.0 | 5.0 | 0.09 | 0.18 | 0.11 | 95 | 1013.3 |
| 20260830092659 | 64 | 206 | 2.0 | 5.0 | 0.09 | 0.18 | 0.11 | 95 | 1013.1 |
| 20260830092158 | 64 | 121 | 2.0 | 5.0 | 0.09 | 0.18 | 0.11 | 95 | 1013.1 |
| 20260830091659 | 64 | 176 | 1.0 | 4.0 | 0.09 | 0.18 | 0.11 | 95 | 1013.1 |
| 20260830091201 | 64 | 183 | 1.0 | 4.0 | 0.08 | 0.17 | 0.10 | 95 | 1013.2 |
| 20260830090701 | 64 | 168 | 2.0 | 6.0 | 0.08 | 0.17 | 0.10 | 95 | 1013.2 |
| 20260830090153 | 64 | 110 | 2.0 | 6.0 | 0.06 | 0.15 | 0.09 | 95 | 1013.2 |
| 20260830085651 | 64 | 152 | 2.0 | 5.0 | 0.04 | 0.13 | 0.06 | 95 | 1013.9 |
| 20260830085151 | 64 | 166 | 1.0 | 5.0 | 0.03 | 0.12 | 0.05 | 95 | 1013.9 |
| 20260830085014 | 64 | 146 | 1.0 | 4.0 | 0.03 | 0.12 | 0.05 | 95 | 1013.9 |
| 20260830084152 | 64 | 125 | 0.0 | 0.0 | 0.02 | 0.11 | 0.04 | 95 | 1013.7 |
| 20260830083624 | 64 | 125 | 0.0 | 0.0 | 0.00 | 0.09 | 0.02 | 96 | 1013.7 |
| 20260830083119 | 64 | 125 | 0.0 | 0.0 | 0.00 | 0.09 | 0.02 | 96 | 1013.7 |
| 20260830082610 | 64 | 125 | 0.0 | 1.0 | 0.00 | 0.09 | 0.02 | 96 | 1013.8 |
| 20260830082106 | 64 | 125 | 0.0 | 1.0 | 0.00 | 0.09 | 0.02 | 96 | 1013.8 |
| 20260830081607 | 64 | 124 | 0.0 | 0.0 | 0.00 | 0.09 | 0.02 | 96 | 1013.8 |
| 20260830081103 | 64 | 119 | 0.0 | 0.0 | 0.00 | 0.09 | 0.02 | 96 | 1013.8 |
| 20260830080855 | 64 | 119 | 0.0 | 0.0 | 0.00 | 0.09 | 0.02 | 96 | 1013.8 |
| 20260830080056 | 64 | 119 | 0.0 | 0.0 | 0.00 | 0.09 | 0.02 | 96 | 1013.8 |
| 20260830075534 | 64 | 119 | 0.0 | 0.0 | 0.00 | 0.09 | 0.02 | 96 | 1014.0 |
| 20260830075012 | 64 | 119 | 0.0 | 0.0 | 0.00 | 0.09 | 0.02 | 96 | 1014.0 |
| 20260830074514 | 64 | 119 | 0.0 | 0.0 | 0.00 | 0.09 | 0.02 | 96 | 1014.0 |
| 20260830074008 | 64 | 119 | 0.0 | 0.0 | 0.00 | 0.09 | 0.02 | 96 | 1014.2 |
| 20260830073506 | 64 | 119 | 0.0 | 0.0 | 0.00 | 0.09 | 0.02 | 96 | 1014.2 |
| 20260830073004 | 64 | 119 | 0.0 | 0.0 | 0.00 | 0.09 | 0.02 | 96 | 1014.1 |
| 20260830072502 | 64 | 119 | 0.0 | 0.0 | 0.00 | 0.09 | 0.02 | 96 | 1014.1 |
| 20260830072000 | 64 | 119 | 0.0 | 0.0 | 0.00 | 0.09 | 0.02 | 96 | 1014.1 |
| 20260830071753 | 64 | 119 | 0.0 | 0.0 | 0.00 | 0.09 | 0.02 | 96 | 1014.4 |
| 20260830070957 | 64 | 119 | 0.0 | 0.0 | 0.00 | 0.09 | 0.02 | 96 | 1014.4 |
| 20260830070448 | 64 | 119 | 0.0 | 0.0 | 0.00 | 0.09 | 0.02 | 96 | 1014.4 |
| 20260830070244 | 64 | 119 | 0.0 | 0.0 | 0.00 | 0.09 | 0.02 | 96 | 1014.5 |
| 20260830065444 | 64 | 119 | 0.0 | 0.0 | 0.00 | 0.09 | 0.02 | 96 | 1014.5 |
| 20260830064936 | 64 | 119 | 0.0 | 0.0 | 0.00 | 0.09 | 0.02 | 96 | 1014.5 |
| 20260830064735 | 64 | 119 | 0.0 | 0.0 | 0.00 | 0.09 | 0.02 | 96 | 1014.7 |
| 20260830064227 | 64 | 119 | 0.0 | 0.0 | 0.00 | 0.09 | 0.02 | 96 | 1014.7 |
| 20260830063407 | 64 | 119 | 0.0 | 0.0 | 0.00 | 0.09 | 0.02 | 96 | 1014.7 |
| 20260830062911 | 64 | 119 | 0.0 | 0.0 | 0.00 | 0.09 | 0.02 | 96 | 1014.9 |
| 20260830062411 | 64 | 119 | 0.0 | 0.0 | 0.00 | 0.09 | 0.02 | 96 | 1014.9 |
| 20260830061910 | 65 | 119 | 0.0 | 0.0 | 0.01 | 0.09 | 0.02 | 96 | 1014.9 |
| 20260830061400 | 64 | 119 | 0.0 | 1.0 | 0.02 | 0.09 | 0.02 | 96 | 1014.9 |
| 20260830060856 | 64 | 119 | 0.0 | 1.0 | 0.02 | 0.09 | 0.02 | 96 | 1014.9 |
| 20260830060407 | 64 | 119 | 0.0 | 1.0 | 0.02 | 0.09 | 0.02 | 96 | 1014.9 |
| 20260830055852 | 64 | 119 | 0.0 | 4.0 | 0.02 | 0.09 | 0.02 | 96 | 1015.0 |
| 20260830055345 | 64 | 119 | 0.0 | 4.0 | 0.02 | 0.09 | 0.02 | 96 | 1015.0 |
| 20260830054838 | 64 | 169 | 1.0 | 2.0 | 0.02 | 0.09 | 0.02 | 96 | 1015.0 |
| 20260830054646 | 64 | 179 | 1.0 | 4.0 | 0.02 | 0.09 | 0.02 | 96 | 1015.4 |
| 20260830053815 | 64 | 167 | 1.0 | 5.0 | 0.02 | 0.09 | 0.02 | 96 | 1015.4 |
| 20260830053627 | 64 | 121 | 1.0 | 5.0 | 0.02 | 0.09 | 0.02 | 95 | 1015.4 |
| 20260830052809 | 64 | 111 | 0.0 | 0.0 | 0.02 | 0.09 | 0.02 | 95 | 1015.6 |
| 20260830052307 | 64 | 111 | 0.0 | 0.0 | 0.02 | 0.09 | 0.02 | 95 | 1015.6 |
| 20260830051807 | 64 | 111 | 0.0 | 0.0 | 0.01 | 0.08 | 0.01 | 95 | 1015.6 |
| 20260830051309 | 64 | 111 | 0.0 | 0.0 | 0.00 | 0.07 | 0.00 | 95 | 1015.4 |
| 20260830050754 | 64 | 111 | 0.0 | 0.0 | 0.00 | 0.07 | 0.00 | 95 | 1015.4 |
| 20260830050556 | 64 | 111 | 0.0 | 0.0 | 0.00 | 0.07 | 0.00 | 95 | 1015.4 |
| 20260830045711 | 64 | 111 | 0.0 | 0.0 | 0.00 | 0.07 | 0.00 | 95 | 1015.1 |
| 20260830045518 | 64 | 111 | 0.0 | 0.0 | 0.00 | 0.07 | 0.00 | 95 | 1015.1 |
| 20260830044644 | 64 | 111 | 0.0 | 0.0 | 0.00 | 0.07 | 0.00 | 95 | 1015.1 |
| 20260830044126 | 64 | 111 | 0.0 | 0.0 | 0.00 | 0.07 | 0.00 | 95 | 1015.2 |
| 20260830043618 | 64 | 111 | 0.0 | 0.0 | 0.00 | 0.07 | 0.00 | 95 | 1015.2 |
| 20260830043110 | 64 | 111 | 0.0 | 0.0 | 0.00 | 0.07 | 0.00 | 95 | 1015.2 |
| 20260830042606 | 64 | 111 | 0.0 | 0.0 | 0.00 | 0.07 | 0.00 | 95 | 1015.3 |
| 20260830042102 | 64 | 111 | 0.0 | 0.0 | 0.00 | 0.07 | 0.00 | 95 | 1015.3 |
| 20260830041606 | 64 | 111 | 0.0 | 0.0 | 0.00 | 0.07 | 0.00 | 95 | 1015.3 |
| 20260830041401 | 64 | 111 | 0.0 | 0.0 | 0.00 | 0.07 | 0.00 | 95 | 1015.3 |
| 20260830040550 | 64 | 111 | 0.0 | 0.0 | 0.00 | 0.07 | 0.00 | 95 | 1015.3 |
| 20260830040056 | 64 | 111 | 0.0 | 0.0 | 0.00 | 0.07 | 0.00 | 94 | 1015.3 |
| 20260830035525 | 64 | 111 | 0.0 | 0.0 | 0.00 | 0.07 | 0.07 | 94 | 1015.4 |
| 20260830035022 | 64 | 111 | 0.0 | 0.0 | 0.00 | 0.07 | 0.07 | 94 | 1015.5 |
| 20260830034512 | 64 | 111 | 0.0 | 0.0 | 0.00 | 0.07 | 0.07 | 95 | 1015.5 |
| 20260830034009 | 64 | 111 | 0.0 | 0.0 | 0.00 | 0.07 | 0.07 | 95 | 1015.6 |
| 20260830033507 | 64 | 111 | 0.0 | 0.0 | 0.00 | 0.07 | 0.07 | 95 | 1015.6 |
| 20260830033007 | 64 | 111 | 0.0 | 0.0 | 0.00 | 0.07 | 0.07 | 95 | 1015.4 |
| 20260830032505 | 64 | 111 | 0.0 | 0.0 | 0.00 | 0.07 | 0.07 | 94 | 1015.4 |
| 20260830031950 | 64 | 111 | 0.0 | 0.0 | 0.00 | 0.07 | 0.07 | 95 | 1015.4 |
| 20260830031450 | 64 | 111 | 0.0 | 0.0 | 0.00 | 0.07 | 0.07 | 94 | 1015.4 |
| 20260830031245 | 64 | 111 | 0.0 | 0.0 | 0.00 | 0.07 | 0.07 | 94 | 1015.4 |
| 20260830030614 | 64 | 111 | 0.0 | 0.0 | 0.03 | 0.07 | 0.07 | 94 | 1015.4 |
| 20260830030548 | 64 | 111 | 0.0 | 0.0 | 0.02 | 0.07 | 0.07 | 94 | 1015.4 |
| 20260830025445 | 64 | 111 | 0.0 | 0.0 | 0.05 | 0.07 | 0.07 | 94 | 1015.4 |
| 20260830024940 | 64 | 111 | 0.0 | 0.0 | 0.05 | 0.07 | 0.07 | 94 | 1015.4 |
| 20260830024434 | 64 | 111 | 0.0 | 0.0 | 0.05 | 0.07 | 0.07 | 93 | 1015.3 |
| 20260830023908 | 65 | 111 | 0.0 | 1.0 | 0.05 | 0.07 | 0.07 | 93 | 1015.3 |
| 20260830023411 | 65 | 111 | 1.0 | 4.0 | 0.05 | 0.07 | 0.07 | 93 | 1015.3 |
| 20260830022907 | 65 | 111 | 1.0 | 4.0 | 0.05 | 0.07 | 0.07 | 93 | 1015.5 |
| 20260830022723 | 65 | 88 | 1.0 | 4.0 | 0.05 | 0.07 | 0.07 | 93 | 1015.5 |
| 20260830022215 | 65 | 76 | 0.0 | 4.0 | 0.05 | 0.07 | 0.07 | 93 | 1015.5 |
| 20260830021407 | 65 | 122 | 0.0 | 1.0 | 0.05 | 0.07 | 0.07 | 93 | 1015.8 |
| 20260830020900 | 65 | 122 | 0.0 | 1.0 | 0.05 | 0.07 | 0.07 | 93 | 1015.8 |
| 20260830020356 | 65 | 124 | 0.0 | 0.0 | 0.03 | 0.05 | 0.05 | 93 | 1015.8 |
| 20260830015854 | 65 | 124 | 0.0 | 0.0 | 0.01 | 0.03 | 0.04 | 93 | 1015.4 |
| 20260830015348 | 65 | 124 | 0.0 | 0.0 | 0.00 | 0.02 | 0.02 | 93 | 1015.4 |
| 20260830014851 | 65 | 124 | 0.0 | 0.0 | 0.00 | 0.02 | 0.02 | 92 | 1015.4 |
| 20260830014346 | 65 | 124 | 0.0 | 0.0 | 0.00 | 0.02 | 0.02 | 92 | 1015.0 |
| 20260830013845 | 65 | 124 | 0.0 | 0.0 | 0.00 | 0.02 | 0.02 | 92 | 1015.1 |
| 20260830013332 | 65 | 124 | 0.0 | 1.0 | 0.00 | 0.02 | 0.02 | 92 | 1015.1 |
| 20260830012826 | 65 | 124 | 0.0 | 1.0 | 0.01 | 0.02 | 0.02 | 91 | 1015.1 |
| 20260830012622 | 65 | 123 | 0.0 | 0.0 | 0.01 | 0.02 | 0.02 | 91 | 1015.1 |
| 20260830011810 | 66 | 123 | 0.0 | 0.0 | 0.01 | 0.02 | 0.02 | 91 | 1015.1 |
| 20260830011310 | 66 | 123 | 0.0 | 0.0 | 0.01 | 0.02 | 0.02 | 91 | 1015.0 |
| 20260830010805 | 66 | 123 | 0.0 | 0.0 | 0.02 | 0.02 | 0.02 | 90 | 1015.0 |
| 20260830010600 | 66 | 123 | 0.0 | 0.0 | 0.02 | 0.02 | 0.02 | 90 | 1015.0 |